Regional Weather Roundup
Issued by NWS

Home | Current Version | Previous Version | Graphics & Text | Print | Product List | Glossary Off
Versions: 1 2 3 4 5 6 7 8 9 10 11 12 13 14 15 16 17 18 19 20 21 22 23 24 25 26 27 28 29 30 31 32 33 34 35 36 37 38 39 40 41 42 43 44 45 46 47 48 49 50

000
ASUS43 KMKX 021221
RWRWI

WISCONSIN REGIONAL WEATHER ROUNDUP
NATIONAL WEATHER SERVICE MILWAUKEE/SULLIVAN WI
700 AM CDT SUN AUG 02 2015

NOTE: "FAIR" INDICATES FEW OR NO CLOUDS BELOW 12,000 FEET WITH NO
SIGNIFICANT WEATHER AND/OR OBSTRUCTIONS TO VISIBILITY.

WIZ001-002-006>008-014>016-023>028-021300-
NORTHWEST WISCONSIN

CITY           SKY/WX    TMP DP  RH WIND       PRES   REMARKS
SUPERIOR ARPT  MOSUNNY   64  60  88 W3        29.66R
6HR MIN TEMP:  59; 6HR MAX TEMP:  65;

ASHLAND        PTSUNNY   65  64  97 S5        29.66R
6HR MIN TEMP:  58; 6HR MAX TEMP:  68;

HAYWARD        CLOUDY    66  63  90 CALM      29.67R
6HR MIN TEMP:  64; 6HR MAX TEMP:  71; 6HR PCP: TRACE;

SIREN          MOCLDY    63  61  94 CALM      29.67S
6HR MIN TEMP:  63; 6HR MAX TEMP:  73; 6HR PCP:  0.38;

CUMBERLAND     CLOUDY    63  63 100 S7        29.67F
RICE LAKE      CLOUDY    65  63  91 S7        29.68F
6HR MIN TEMP:  65; 6HR MAX TEMP:  68;

CHETEK         CLOUDY    67  65  93 CALM      29.69R
6HR MIN TEMP:  65; 6HR MAX TEMP:  69;

LADYSMITH      CLOUDY    67  65  92 W15       29.69F
6HR MIN TEMP:  64; 6HR MAX TEMP:  70;

EAU CLAIRE     MOSUNNY   68  65  90 CALM      29.69R
6HR MIN TEMP:  68; 6HR MAX TEMP:  71; 6HR PCP:  0.03;

MENOMONIE      MOSUNNY   67  65  91 S3        29.69F
6HR MIN TEMP:  68; 6HR MAX TEMP:  73;

NEW RICHMOND   PTCLDY    67  66  96 CALM      29.69S
6HR MIN TEMP:  65; 6HR MAX TEMP:  72;

OSCEOLA        PTCLDY    67  67 100 CALM      29.69S
6HR MIN TEMP:  67; 6HR MAX TEMP:  73;

$$

WIZ003>005-009-010-017-018-021300-
NORTH CENTRAL WISCONSIN

CITY           SKY/WX    TMP DP  RH WIND       PRES   REMARKS
MANITOWISH WTR CLOUDY    64  64 100 CALM      29.70R
6HR MIN TEMP:  56; 6HR MAX TEMP:  64;

ARBOR VITAE    LGT RAIN  65  63  93 SW3       29.70R
6HR MIN TEMP:  59; 6HR MAX TEMP:  65;

WOODRUFF       LGT RAIN  65  63  93 SW3       29.70R
6HR MIN TEMP:  59; 6HR MAX TEMP:  65;

RHINELANDER    CLOUDY    68  64  87 SW12      29.71R
6HR MIN TEMP:  63; 6HR MAX TEMP:  68;

EAGLE RIVER    MOSUNNY   66  64  95 W6        29.69S
6HR MIN TEMP:  56; 6HR MAX TEMP:  66;

LAND O LAKES   CLOUDY    66  62  88 N6        29.71R
6HR MIN TEMP:  52; 6HR MAX TEMP:  66;

PHILLIPS       TSTM      63  61  93 SE9       29.65F
6HR MIN TEMP:  63; 6HR MAX TEMP:  67; 6HR PCP:  0.24;

TOMAHAWK       PTSUNNY   63  62  97 CALM      29.72R
6HR MIN TEMP:  59; 6HR MAX TEMP:  66;

MEDFORD        MOSUNNY   66  65  96 SW3       29.73R
6HR MIN TEMP:  65; 6HR MAX TEMP:  69;

MERRILL        NOT AVBL
$$

WIZ029-030-035-036-043>047-021300-
CENTRAL WISCONSIN

CITY           SKY/WX    TMP DP  RH WIND       PRES   REMARKS
WAUSAU         CLOUDY    69  66  90 CALM      29.70R
6HR MIN TEMP:  65; 6HR MAX TEMP:  70; 6HR PCP:  0.13;

MOSINEE        MOSUNNY   66  66 100 SW3       29.72S
MARSHFIELD     SUNNY     70  65  84 SW8       29.71R
6HR MIN TEMP:  65; 6HR MAX TEMP:  70; 6HR PCP: TRACE;

STEVENS POINT  SUNNY     68  66  94 SW7       29.71S
6HR MIN TEMP:  64; 6HR MAX TEMP:  68;

WAUPACA        MOSUNNY   69  67  93 S6        29.71F
6HR MIN TEMP:  63; 6HR MAX TEMP:  69;

WAUTOMA        MOSUNNY   70  68  93 SW3       29.73F
6HR MIN TEMP:  60; 6HR MAX TEMP:  70; 6HR PCP:  0.35;

WISC RAPIDS    SUNNY     73  67  81 SW10      29.71F
6HR MIN TEMP:  66; 6HR MAX TEMP:  73; 6HR PCP: TRACE;

CAMP DOUGLAS   MOSUNNY   74  74  99 SW12      29.71F
6HR MIN TEMP:  67; 6HR MAX TEMP:  75;

$$

WIZ011>013-019>022-031-037>040-048>050-021300-
NORTHEAST WISCONSIN

CITY           SKY/WX    TMP DP  RH WIND       PRES   REMARKS
ANTIGO         MOSUNNY   66  65  98 SW7       29.72R
SHAWANO        MOSUNNY   68  64  88 CALM      29.70R
6HR MIN TEMP:  65; 6HR MAX TEMP:  68; 6HR PCP:  0.04;

OCONTO         PTSUNNY   68  68 100 SW7       29.66F
6HR MIN TEMP:  56; 6HR MAX TEMP:  68; 6HR PCP:  0.02;

STURGEON BAY   PTSUNNY   73  64  73 SW13      29.68F
6HR MIN TEMP:  64; 6HR MAX TEMP:  72;

GREEN BAY      CLOUDY    71  67  87 SW6       29.70F
6HR MIN TEMP:  64; 6HR MAX TEMP:  71; 6HR PCP: TRACE;

MANITOWOC      PTSUNNY   73  67  81 MISG      29.72F
6HR MIN TEMP:  61; 6HR MAX TEMP:  73;

APPLETON       PTSUNNY   70  66  88 S9        29.73F
CLINTONVILLE   MOSUNNY   68  64  88 SW6       29.70R
OSHKOSH        CLOUDY    69  65  86 S12       29.72F
6HR MIN TEMP:  66; 6HR MAX TEMP:  71;

$$

WIZ032>034-041-042-053>061-021300-
SOUTHWEST WISCONSIN

CITY           SKY/WX    TMP DP  RH WIND       PRES   REMARKS
LA CROSSE      SUNNY     74  67  78 SE7       29.71S
6HR MIN TEMP:  72; 6HR MAX TEMP:  76;

SPARTA         MOSUNNY   73  64  75 CALM      29.73S
6HR MIN TEMP:  69; 6HR MAX TEMP:  73;

VIROQUA        SUNNY     72  70  93 SW8       29.77S
6HR MIN TEMP:  71; 6HR MAX TEMP:  73;

BOSCOBEL       PTSUNNY   72  69  90 SW5       29.77F
6HR MIN TEMP:  69; 6HR MAX TEMP:  74;

PRAIRIE DU CHI PTSUNNY   74  65  74 CALM      29.77S
6HR MIN TEMP:  72; 6HR MAX TEMP:  74;

PLATTEVILLE    MOSUNNY   71  69  93 SW8       29.81S
6HR MIN TEMP:  69; 6HR MAX TEMP:  71;

$$

WIZ056-057-062-063-064-067-068-021300-
SOUTH CENTRAL WISCONSIN

CITY           SKY/WX    TMP DP  RH WIND       PRES   REMARKS
REEDSBURG      MOSUNNY   73  69  89 SW10      29.75R
6HR MIN TEMP:  71; 6HR MAX TEMP:  74;

BARABOO/DELLS  MOSUNNY   73  67  82 SW13G18   29.75S
6HR MIN TEMP:  71; 6HR MAX TEMP:  73;

LONE ROCK      MOSUNNY   74  69  85 W7        29.78S
6HR MIN TEMP:  66; 6HR MAX TEMP:  74;

MINERAL POINT  MOSUNNY   72  68  88 SW7       29.81S
MADISON        MOSUNNY   75  68  78 VRB7      29.77F
6HR MIN TEMP:  74; 6HR MAX TEMP:  76;

MIDDLETON      MOSUNNY   74  69  84 SW10      29.78F
6HR MIN TEMP:  73; 6HR MAX TEMP:  76;

WATERTOWN      MOSUNNY   72  72 100 S7        29.78F
6HR MIN TEMP:  67; 6HR MAX TEMP:  72;

MONROE         SUNNY     70  68  94 SW15      29.81F
JANESVILLE     MOSUNNY   72  70  94 S8        29.81S
$$

WIZ051-052-058>065-066-070>072-021300-
SOUTHEAST WISCONSIN

CITY           SKY/WX    TMP DP  RH WIND       PRES   REMARKS
MILWAUKEE      PTSUNNY   75  68  78 SW13G22   29.79F
6HR MIN TEMP:  71; 6HR MAX TEMP:  75;

WAUKESHA       MOSUNNY   72  66  83 SW9       29.81F
MILWAUKEE/TIMM PTSUNNY   72  64  78 SW13G20   29.79F
RACINE         CLOUDY    73  68  84 SW12      29.81F
6HR MIN TEMP:  70; 6HR MAX TEMP:  73;

BURLINGTON     MOSUNNY   68  67  96 S7        29.81F
6HR MIN TEMP:  64; 6HR MAX TEMP:  69;

KENOSHA        MOSUNNY   73  68  84 SW8       29.82F
6HR MIN TEMP:  69; 6HR MAX TEMP:  73;

FOND DU LAC    PTSUNNY   73  68  84 S10       29.74F
6HR MIN TEMP:  66; 6HR MAX TEMP:  73;

SHEBOYGAN      MOSUNNY   69  66  90 SW7       29.75F
6HR MIN TEMP:  61; 6HR MAX TEMP:  70;

WEST BEND      MOSUNNY   73  66  78 SW12      29.77F
JUNEAU         PTSUNNY   70  67  93 S9        29.78F
6HR MIN TEMP:  63; 6HR MAX TEMP:  70;

$$

LSZ147-162-021300-
LAKE SUPERIOR

STATION/POSITION TIME  TEMP    WIND        PRES    WAVE
                       AIR SEA DIR/SP/G            HT/PER
                 (UTC) (F)     (DEG/KT/KT) (MB)    (FT/S)
W MID LAKE BUOY  1150   56 54   30/  6/  8 1001.9F   1/ 3
DEVILS ISLAND    1200   66     200/  7/  8 1002.5S
PORT WING        1100   64     160/  2/  4 1004.1F
SAXON HARBOR     1100   67                 1004.1
$$

LMZ867-665-643>646-021300-
LAKE MICHIGAN

STATION/POSITION TIME  TEMP    WIND        PRES    WAVE
                       AIR SEA DIR/SP/G            HT/PER



USA.gov is the U.S. government's official web portal to all federal, state and local government web resources and services.